TimeCDT,TemperatureF,Dew PointF,Humidity,Sea Level PressureIn,VisibilityMPH,Wind Direction,Wind SpeedMPH,Gust SpeedMPH,PrecipitationIn,Events,Conditions,WindDirDegrees,DateUTC
12:15 AM,42.8,42.8,100,30.16,0.2,Calm,Calm,-,N/A,Fog,Fog,0,2014-05-15 05:15:00
12:55 AM,42.8,42.8,100,30.15,3.0,Calm,Calm,-,N/A,,Clear,0,2014-05-15 05:55:00
1:15 AM,42.8,42.8,100,30.15,3.0,Calm,Calm,-,N/A,,Clear,0,2014-05-15 06:15:00
1:35 AM,41.0,41.0,100,30.14,10.0,West,4.6,-,N/A,,Clear,280,2014-05-15 06:35:00
1:55 AM,41.0,41.0,100,30.14,10.0,Calm,Calm,-,N/A,,Clear,0,2014-05-15 06:55:00
2:15 AM,41.0,41.0,100,30.13,4.0,Calm,Calm,-,N/A,,Clear,0,2014-05-15 07:15:00
2:35 AM,41.0,41.0,100,30.13,7.0,West,3.5,-,N/A,,Clear,270,2014-05-15 07:35:00
2:55 AM,41.0,39.2,93,30.13,7.0,Calm,Calm,-,N/A,,Clear,0,2014-05-15 07:55:00
3:15 AM,39.2,39.2,100,30.12,2.5,Calm,Calm,-,N/A,,Clear,0,2014-05-15 08:15:00
3:35 AM,39.2,39.2,100,30.12,1.5,Calm,Calm,-,N/A,,Clear,0,2014-05-15 08:35:00
3:55 AM,39.2,39.2,100,30.12,5.0,Calm,Calm,-,N/A,,Clear,0,2014-05-15 08:55:00
4:15 AM,39.2,39.2,100,30.11,3.0,Calm,Calm,-,N/A,,Clear,0,2014-05-15 09:15:00
4:35 AM,39.2,39.2,100,30.12,1.0,West,3.5,-,N/A,,Clear,270,2014-05-15 09:35:00
5:15 AM,39.2,39.2,100,30.13,8.0,Calm,Calm,-,N/A,,Overcast,0,2014-05-15 10:15:00
5:35 AM,39.2,39.2,100,30.12,5.0,Calm,Calm,-,N/A,,Overcast,0,2014-05-15 10:35:00
5:55 AM,41.0,41.0,100,30.13,10.0,Calm,Calm,-,N/A,,Overcast,0,2014-05-15 10:55:00
6:15 AM,41.0,41.0,100,30.13,5.0,WSW,3.5,-,N/A,,Overcast,250,2014-05-15 11:15:00
6:35 AM,41.0,41.0,100,30.14,9.0,Calm,Calm,-,N/A,,Overcast,0,2014-05-15 11:35:00
6:55 AM,41.0,41.0,100,30.14,7.0,Calm,Calm,-,N/A,,Overcast,0,2014-05-15 11:55:00
7:15 AM,44.6,44.6,100,30.15,8.0,SW,5.8,-,N/A,,Overcast,230,2014-05-15 12:15:00
7:35 AM,44.6,44.6,100,30.14,10.0,SW,5.8,-,N/A,,Mostly Cloudy,220,2014-05-15 12:35:00
7:55 AM,44.6,44.6,100,30.14,10.0,SW,4.6,-,N/A,,Mostly Cloudy,220,2014-05-15 12:55:00
8:15 AM,48.2,44.6,87,30.14,10.0,SW,5.8,-,N/A,,Mostly Cloudy,230,2014-05-15 13:15:00
8:35 AM,48.2,44.6,87,30.14,10.0,SW,6.9,-,N/A,,Partly Cloudy,220,2014-05-15 13:35:00
8:55 AM,50.0,44.6,82,30.14,10.0,SSW,6.9,-,N/A,,Clear,210,2014-05-15 13:55:00
9:15 AM,51.8,46.4,82,30.14,10.0,SW,9.2,-,N/A,,Partly Cloudy,230,2014-05-15 14:15:00
9:35 AM,53.6,46.4,77,30.14,10.0,WSW,10.4,-,N/A,,Partly Cloudy,240,2014-05-15 14:35:00
9:55 AM,53.6,46.4,77,30.14,10.0,SW,8.1,-,N/A,,Clear,230,2014-05-15 14:55:00
10:15 AM,55.4,48.2,77,30.14,10.0,SW,5.8,-,N/A,,Clear,220,2014-05-15 15:15:00
10:35 AM,57.2,46.4,67,30.14,10.0,WNW,10.4,-,N/A,,Partly Cloudy,290,2014-05-15 15:35:00
10:55 AM,57.2,46.4,67,30.14,10.0,WNW,4.6,-,N/A,,Partly Cloudy,300,2014-05-15 15:55:00
11:15 AM,59.0,44.6,59,30.14,10.0,WNW,8.1,-,N/A,,Clear,290,2014-05-15 16:15:00
11:35 AM,59.0,44.6,59,30.14,10.0,West,9.2,-,N/A,,Partly Cloudy,280,2014-05-15 16:35:00
11:55 AM,60.8,44.6,55,30.14,10.0,NW,13.8,23.0,N/A,,Scattered Clouds,310,2014-05-15 16:55:00
12:15 PM,60.8,42.8,52,30.14,10.0,West,8.1,20.7,N/A,,Scattered Clouds,270,2014-05-15 17:15:00
12:35 PM,60.8,41.0,48,30.14,10.0,WNW,8.1,19.6,N/A,,Scattered Clouds,300,2014-05-15 17:35:00
12:55 PM,60.8,42.8,52,30.13,10.0,WNW,11.5,19.6,N/A,,Scattered Clouds,290,2014-05-15 17:55:00
1:15 PM,60.8,41.0,48,30.13,10.0,NW,13.8,24.2,N/A,,Partly Cloudy,310,2014-05-15 18:15:00
2:15 PM,60.8,41.0,48,30.12,10.0,WNW,10.4,25.3,N/A,,Partly Cloudy,300,2014-05-15 19:15:00
2:35 PM,62.6,41.0,45,30.11,10.0,WNW,13.8,25.3,N/A,,Partly Cloudy,290,2014-05-15 19:35:00
2:55 PM,62.6,39.2,42,30.11,10.0,NW,13.8,21.9,N/A,,Scattered Clouds,310,2014-05-15 19:55:00
3:15 PM,62.6,37.4,39,30.11,10.0,NW,20.7,31.1,N/A,,Partly Cloudy,310,2014-05-15 20:15:00
3:35 PM,60.8,35.6,39,30.11,10.0,WNW,18.4,26.5,N/A,Thunderstorm,Partly Cloudy,300,2014-05-15 20:35:00
3:55 PM,60.8,32.0,34,30.10,10.0,West,17.3,24.2,N/A,,Clear,270,2014-05-15 20:55:00
4:15 PM,60.8,32.0,34,30.09,10.0,WNW,10.4,20.7,N/A,,Clear,300,2014-05-15 21:15:00
4:35 PM,60.8,32.0,34,30.09,10.0,NW,11.5,20.7,N/A,,Clear,310,2014-05-15 21:35:00
4:55 PM,60.8,32.0,34,30.10,10.0,NW,17.3,26.5,N/A,,Clear,310,2014-05-15 21:55:00
5:15 PM,59.0,28.4,31,30.10,10.0,WNW,11.5,21.9,N/A,,Clear,290,2014-05-15 22:15:00
5:35 PM,59.0,28.4,31,30.10,10.0,NW,18.4,24.2,N/A,,Clear,320,2014-05-15 22:35:00
5:55 PM,57.2,28.4,33,30.10,10.0,NNW,9.2,20.7,N/A,,Clear,330,2014-05-15 22:55:00
6:15 PM,59.0,28.4,31,30.10,10.0,NW,12.7,19.6,N/A,Thunderstorm,Clear,320,2014-05-15 23:15:00
6:35 PM,57.2,28.4,33,30.10,10.0,WNW,10.4,17.3,N/A,,Clear,300,2014-05-15 23:35:00
6:55 PM,57.2,26.6,31,30.11,10.0,NW,12.7,24.2,N/A,,Clear,320,2014-05-15 23:55:00
7:15 PM,-9999,-9999,N/A,30.11,10.0,NW,11.5,19.6,N/A,,Unknown,320,2014-05-16 00:15:00
7:35 PM,55.4,28.4,36,30.13,10.0,NNW,6.9,-,N/A,,Clear,330,2014-05-16 00:35:00
7:55 PM,55.4,28.4,36,30.13,10.0,NW,8.1,-,N/A,,Clear,320,2014-05-16 00:55:00
8:15 PM,53.6,28.4,38,30.14,10.0,NW,3.5,-,N/A,,Clear,310,2014-05-16 01:15:00
8:35 PM,53.6,28.4,38,30.14,10.0,Calm,Calm,-,N/A,,Clear,0,2014-05-16 01:35:00
8:55 PM,51.8,30.2,44,30.14,10.0,Calm,Calm,-,N/A,,Clear,0,2014-05-16 01:55:00
9:15 PM,48.2,32.0,54,30.14,10.0,Calm,Calm,-,N/A,,Clear,0,2014-05-16 02:15:00
9:35 PM,46.4,32.0,57,30.14,10.0,Calm,Calm,-,N/A,,Clear,0,2014-05-16 02:35:00
9:55 PM,46.4,33.8,62,30.15,10.0,Calm,Calm,-,N/A,,Clear,0,2014-05-16 02:55:00
10:15 PM,46.4,33.8,62,30.15,10.0,Calm,Calm,-,N/A,,Clear,0,2014-05-16 03:15:00
10:35 PM,44.6,33.8,66,30.15,10.0,Calm,Calm,-,N/A,,Clear,0,2014-05-16 03:35:00
10:55 PM,44.6,33.8,66,30.15,10.0,Calm,Calm,-,N/A,,Clear,0,2014-05-16 03:55:00
11:15 PM,44.6,35.6,71,30.14,10.0,Calm,Calm,-,N/A,,Clear,0,2014-05-16 04:15:00
11:35 PM,44.6,33.8,66,30.14,10.0,Calm,Calm,-,N/A,,Clear,0,2014-05-16 04:35:00
11:55 PM,44.6,32.0,61,30.14,10.0,Calm,Calm,-,N/A,,Clear,0,2014-05-16 04:55:00